Location: Peebles
(55.6412°N, 3.1714°W)
Time: 18:42:47
(UTC+01:00)

USA 238 DEB - Pass Details

Date: 24 January 2022
Orbit: 969 x 1243 km, 63.4° (Epoch: 04 May)

Event Time Altitude Azimuth Distance (km) Brightness Sun altitude
Rises 17:04:05 0° 220° (SW) 3,697 8.0 -4.9°
Reaches altitude 10° 17:06:36 10° 219° (SW) 2,775 7.1 -5.2°
Maximum altitude 17:13:06 75° 135° (SE) 1,087 3.8 -6.1°
Drops below altitude 10° 17:20:04 10° 52° (NE) 2,966 5.4 -7.0°
Enters shadow 17:20:48 - 52° (NE) 3,226 5.6 -7.1°
